Flag for U.S.A. Weather past 2 weeks in Macon, Georgia, U.S.A.

Now
47 °F

Overcast.


Feels Like: 41 °F
Forecast: 38 / 51 °F
Wind: 14 mph from Northwest

Location: Middle Georgia Regional Airport

Current Time: Jan 26, 2015 at 4:39:49 PM

Latest Report: Jan 26, 2015 at 3:53 PM


Visibility: 10 mi

Pressure: 29.85 "Hg

Humidity: 64%

Dew point: 35 °F

Location of MaconLocation

Historic Weather in Macon — Graph

°F

Macon temperature yesterday

Maximum temperature yesterday: 59 °F (at 2:53 PM)
Minimum temperature yesterday: 29 °F (at 4:53 AM)
Average temperature yesterday: 45 °F

Past Weeks' High & Low Weather Summary

 TemperatureHumidityPressure
High69 °F (Jan 21, 2:53 PM)100% (Jan 11, 9:53 PM)30.45 "Hg (Jan 11, 9:53 PM)
Low28 °F (Jan 17, 4:53 AM)19% (Jan 19, 3:53 PM)29.72 "Hg (Jan 24, 1:53 AM)
Average46 °F77%30.11 "Hg
* Reported Jan 11 2:53 PM — Jan 26 2:53 PM, Macon, Weather by CustomWeather, © 2014

Note: Actual official high and low records may vary slightly from our data, if they occured in-between our weather recording intervals... More about our weather records

Advertising

Macon weather history for previous 24 hours

 ConditionsComfort  
Time TempWeatherWind HumidityBarometerVisibility
2:53 PM
Jan 26
47 °FMostly cloudy.16 mph66%29.83 "Hg10 mi
1:53 PM48 °FOvercast.18 mph61%29.83 "Hg10 mi
12:53 PM48 °FOvercast.18 mph66%29.83 "Hg10 mi
11:53 AM48 °FOvercast.16 mph68%29.85 "Hg10 mi
10:53 AM47 °FMostly cloudy.15 mph74%29.86 "Hg10 mi
9:53 AM47 °FMostly cloudy.14 mph77%29.83 "Hg10 mi
8:53 AM46 °FOvercast.10 mph79%29.80 "Hg10 mi
7:53 AM43 °FPartly sunny.12 mph89%29.81 "Hg10 mi
6:53 AM43 °FPassing clouds.9 mph89%29.78 "Hg10 mi
5:53 AM43 °FClear.8 mph86%29.76 "Hg10 mi
4:53 AM46 °FOvercast.10 mph77%29.76 "Hg10 mi
3:53 AM46 °FOvercast.9 mph79%29.76 "Hg10 mi
2:53 AM46 °FClear.5 mph79%29.76 "Hg10 mi
1:53 AM47 °FClear.5 mph77%29.76 "Hg10 mi
12:53 AM50 °FClear.9 mph71%29.77 "Hg10 mi
11:53 PM
Jan 25
50 °FMostly cloudy.10 mph74%29.79 "Hg10 mi
10:53 PM49 °FClear.7 mph74%29.77 "Hg10 mi
9:53 PM46 °FClear.5 mph73%29.78 "Hg10 mi
8:53 PM49 °FClear.3 mph61%29.81 "Hg10 mi
7:53 PM51 °FClear.3 mph52%29.81 "Hg10 mi
6:53 PM53 °FClear.5 mph45%29.80 "Hg10 mi
5:53 PM56 °FSunny.9 mph40%29.80 "Hg10 mi
4:53 PM58 °FSunny.7 mph36%29.80 "Hg10 mi
Weather by CustomWeather, © 2014

See weather overviewHow to use our weather pages